Погода Костанай

Погода Костанай : погода сейчас, прогноз погоды и архив. Всё, что Вы хотите узнать о погоде Костанай!

Хотите узнать прогноз погоды в Костанае? Тогда Вам сюда: Погода в Костанае

Поиск расширенной информации на нашем сайте:

Другие новости

Новости СМИ2

Главная страница сайта

Новости сайта

02.10.2013

Напоминаем, что на нашем новом сайте вы можете получить высокодетализированные прогнозы погоды по пунктам России, СНГ и мира (включающие важные для авиации метеовеличины, такие как направление и скорость ветра, видимость, явления погоды, количество и форма облачности, нижняя и верхняя граница облачности), а также ознакомиться с разнообразными материалами по авиационной метеорологии и подборкой полезных ссылок на эту тему.

Сайт Метеоцентр.Азия посвящён разработке технологий оптимизации авиаметеорологического обслуживания, включая проектирование и перспективное создание нескольких автоматизированных авиаметеорологических систем:
- система выпуска высокодетальных прогностических карт явлений погоды для нижнего воздушного пространства по России и ближнему зарубежью;
- система верификации прогнозов TAF (выпускаемых синоптиками официальных АМСГ РФ и ближнего зарубежья) и AUTOTAF (выпускаемых сайтом Метеоцентр.Азия) - выявление ошибок, онлайн-сопоставление с фактической погодой METAR, автоматическое внесение коррективов в прогнозы при резком отклонении фактической погоды от прогноза, подсчёт оправдываемости прогнозов по элементам и в целом;
- система обработки, анализа и отображения авиаметеорологической информации для применения провайдерами метеорологической информации.


Погода Костанай - сегодня

Время (UTC), дата Ветер
(°,м/с) 
Видим.   Явления Облачность Т
(°С)
Тd
(°С)
f(%) Тe
(°С)
Pmin
(гПа)
dP
(гПа)
Po
(мм)
O2
(г/м3)
Тmin Tmax R s Состояние
почвы
09 23.04.17 230 (ЮЗ) 10  20000 м    9/9 600 м 
[Cu Sc]
+10.4 +5.3 71 +8  1004.6  740  286           
12 23.04.17 250 (З) 20000 м  {ливн. осадки, снег} [макс. диам. градин 10 мм]  9/9 600 м 
[Cu Sc]
+9.7 +3.4 65 +8  1006.7  2.1  741  288           
15 23.04.17 250 (З) 20000 м    9/9 600 м 
[Cu Sc]
+9.5 +2.7 62 +7  1010.1  3.4  744  289    +11     
18 23.04.17 250 (З) н/о    ясно 
+6.5 +0.7 66 +4  1014.5  747  294    +11     
21 23.04.17 250 (З) н/о    ясно 
+4.7 +0.5 74 +3  1016.7  748  296           
00 24.04.17 250 (З) н/о    ясно 
+3.8 +0.7 80 +5  1018.9  750  298           
03 24.04.17 160 (Ю) 4000 м  дымка  9/9 600 м 
[Sc]
+4.9 +2.4 84 +5  1020.6  1.9  751  297           
06 24.04.17 160 (Ю) 20000 м    6/3 1000 м средняя 
[Sc|Ac trans]
+12.1 +7.1 71 +12  1019.8  -0.3  751  289  +1.8         
09 24.04.17 180 (Ю) 20000 м    8/8 600 м 
[Cu Sc]
+16.1 +8.2 59 +16  1018.8  -0.7  751  284           
12 24.04.17 140 (ЮВ) 20000 м    9/9 600 м 
[Cu Sc]
+16.7 +7.3 54 +16  1016.5  -2.3  749  283           
15 24.04.17 140 (ЮВ) 20000 м    9/9 600 м 
[Sc]
+15 +7.1 59 +14  1013.5  -3  747  284    +16.7       
18 24.04.17 140 (ЮВ) н/о    8/8 600 м 
[Sc]
+13.9 +7.8 67 +13  1012.3  -1.3  746  285    +16.7       
21 24.04.17 140 (ЮВ) н/о    9/9 600 м 
[Sc]
+13 +7.4 69 +12  1010.2  744  285           
00 25.04.17 140 (ЮВ) 10 км    9/9 600 м 
[Sc]
+13.2 +8.4 73 +12  1010.2  744  285           
03 25.04.17 180 (Ю) 20000 м  в посл. час ливневой дождь  10/10 600 м кучево-дожд. 
[Cb cap]
+13.7 +9.8 77 +14  1011.3  745  284      0.0     
06 25.04.17 200 (Ю) 10 км  слаб. ливневой дождь  10/10 600 м кучево-дожд. 
[Cb cap]
+13.1 +10.9 86 +16  1013.3  746  285  +13    0.0     
09 25.04.17 160 (Ю) 20000 м  в посл. час ливневой дождь  9/9 600 м кучево-дожд. 
[Cb cap]
+12.7 +9.8 82 +14  1014.1  0.8  747  286           
12 25.04.17 180 (Ю) 20000 м  {ливн. осадки}  9/9 600 м 
[Cu Sc]
+15 +11.1 77 +19  1014.5  0.5  747  283           
15 25.04.17 180 (Ю) 20000 м    8/8 600 м 
[Sc]
+14.8 +10.6 76 +18  1014.1  -0.4  747  284    +15     
18 25.04.17 180 (Ю) н/о    3/0 средняя 
[Ac trans]
+10.4 +8 85 +12  1014.7  0.3  747  289    +15     
21 25.04.17 тихо ()   н/о  туман  3/0 средняя 
[Ac trans]
+7.4 +6.5 94 +7  1014.4  -0.5  747  292           
00 26.04.17 тихо ()   4000 м  дымка{туман}  ясно 
+5.1 +2.9 86 +5  1014.8  0.2  747  295           
03 26.04.17 020 (С) 4000 м  дымка  4/3 600 м средняя 
[Sc|Ac trans]
+5.3 +2.3 81 +6  1015.4  0.7  748  295           
06 26.04.17 340 (С) 20000 м    4/3 600 м средняя 
[Cu med, cong|Ac trans]
+11.5 +6.2 70 +11  1015.2  0.2  748  288  +5.1         
09 26.04.17 340 (С) 20000 м    6/3 600 м средняя 
[Cu med, cong|Ac trans]
+15.1 +7.4 60 +14  1014.7  -0.3  748  284           
Время (UTC), дата Ветер
(°,м/с) 
Видим.   Явления Облачность Т
(°С)
Тd
(°С)
f(%) Тe
(°С)
Pmin
(гПа)
dP
(гПа)
Po
(мм)
O2
(г/м3)
Тmin Tmax R s Состояние
почвы

Для получения пояснительной информации подведите курсор к названию столбца.

ПОГОДА Костанай - архив

Всё, что Вы хотите узнать о погоде Костанай - удобно и подробно!

Выберите нужную дату (начиная с 1 января 2015* года) и нажмите кнопку "Найти".
Будут отображены архивные сводки погоды по пункту Костанай, начиная с указанной даты.


Отображать данные в формате CSV (для использования в таблицах Excel)


Внимание! Наш архив погоды предназначен исключительно для личного некоммерческого использования в познавательных целях. Если Вам необходимы официальные справки о состоянии погоды (для производственных, юридических, коммерческих и т.п. целей), обращайтесь в органы Росгидромета.

*Примечание: данная дата относится к архиву по метеостанциям СССР (Россия, СНГ, Балтия).
Архив по метеостанциям Зарубежной Европы и Азии (кроме Китая) хранится 10 дней, по другим регионам земного шара (Китай, Африка, Америка, Австралия, Океания) - 1 день.

Костанай - район местоположения метеостанции


Название, широта, долгота, высота метеостанции:
Костанай (город) 53.2°ш. 63.6°д. 156 м над ур. моря [Казахстан]

Дополнительная информация

В oтличие oт бoльшинства пoгoдных сайтoв мы публикуем пoдрoбную метеoинфoрмацию в детальнoм прoфессиoнальнoм фoрмате.

Характеристики температуры и влажнoсти вoздуха измеряются на высoте 2 м в тени вдали oт зданий и деревьев.
Скoрoсть ветра измеряется на высoте 10 м (на урoвне рoста челoвека скoрoсть ветра ниже в 1.5-2 раза). Если метеoстанция нахoдится в гoрoде или в лесу, тo скoрoсть ветра занижена на 2-4 м/с пo сравнению с oткрытым местoм. Скoрoсть ветра над акватoриями крупных рек и oзёр, а также на вершинах хoлмoв на 2-5 м/с выше, чем в oбычных услoвиях.
Атмoсфернoе давление в разных тoчках местнoсти мoжет значительнo oтличаться oт давления на метеoстанции, в зависимoсти oт услoвий рельефа (при пoдъёме на 10 м давление пoнижается примернo на 1 мм рт.ст.).